This demonstration page uses our WeatherBlox Daily Observations layout. Learn more.

Left ArrowRight Arrow

Hourly Observations for May 10, 2021

Temp ( °F °C ) Dew Point ( °F °C ) Humidity (%) Winds ( mph kmh ) Pressure ( in mb ) Visibility ( mi km ) Precip ( " mm )
12:15 am 00:15 Cloudy 59 15 54 12 82 82 SW 5 7 29.71 1006 10 16.0934 N/A
12:35 am 00:35 Cloudy 61 16 54 12 77 77 SW 5 7 29.71 1006 10 16.0934 N/A
12:55 am 00:55 Cloudy 61 16 54 12 77 77 N N/A 29.71 1006 10 16.0934 N/A
1:15 am 01:15 Cloudy 59 15 52 11 77 77 NNE 5 7 29.72 1006 10 16.0934 N/A
1:35 am 01:35 Cloudy 57 14 52 11 82 82 N 3 6 29.73 1007 10 16.0934 N/A
1:55 am 01:55 Cloudy 59 15 52 11 77 77 N 8 13 29.76 1008 10 16.0934 N/A
2:15 am 02:15 Cloudy 57 14 52 11 82 82 NNE 3 6 29.77 1008 10 16.0934 N/A
2:35 am 02:35 Cloudy 55 13 52 11 88 88 N N/A 29.78 1009 10 16.0934 N/A
2:55 am 02:55 Mostly Cloudy 57 14 54 12 88 88 NNW 9 15 29.78 1008 10 16.0934 N/A
3:15 am 03:15 Mostly Cloudy 55 13 54 12 94 94 NNW 14 22 29.78 1009 10 16.0934 N/A
3:35 am 03:35 Cloudy 57 14 52 11 82 82 NNW 14 22 29.79 1009 10 16.0934 N/A
3:55 am 03:55 Cloudy 57 14 52 11 82 82 NNW 16 26 29.8 1009 10 16.0934 N/A
4:15 am 04:15 Cloudy 57 14 50 10 77 77 NNW 17 28 29.81 1009 10 16.0934 N/A
4:35 am 04:35 Partly Cloudy 55 13 50 10 82 82 N 20 31 29.82 1010 10 16.0934 N/A
4:55 am 04:55 Partly Cloudy 55 13 50 10 82 82 N 13 20 29.84 1011 10 16.0934 N/A
5:15 am 05:15 Mostly Cloudy 54 12 46 8 77 77 NNW 15 24 29.86 1011 10 16.0934 N/A
5:35 am 05:35 Cloudy 54 12 46 8 77 77 N 12 19 29.87 1012 10 16.0934 N/A
5:55 am 05:55 Cloudy 54 12 45 7 72 72 N 7 11 29.88 1012 10 16.0934 N/A
6:15 am 06:15 Cloudy 52 11 45 7 77 77 NNW 15 24 29.9 1013 10 16.0934 N/A
6:35 am 06:35 Cloudy 52 11 43 6 72 72 N 10 17 29.91 1013 10 16.0934 N/A
6:55 am 06:55 Cloudy 52 11 43 6 72 72 N 13 20 29.92 1013 10 16.0934 N/A
7:15 am 07:15 Cloudy 50 10 43 6 76 76 N 12 19 29.96 1014 10 16.0934 N/A
7:35 am 07:35 Cloudy 50 10 43 6 76 76 NNW 17 28 29.96 1014 10 16.0934 N/A
7:55 am 07:55 Cloudy 50 10 43 6 76 76 N 18 30 29.97 1015 10 16.0934 N/A
8:15 am 08:15 Cloudy 48 9 41 5 76 76 N 14 22 29.98 1015 10 16.0934 N/A
8:35 am 08:35 Cloudy 50 10 41 5 71 71 N 21 33 29.99 1015 10 16.0934 N/A
8:55 am 08:55 Cloudy 50 10 41 5 71 71 NNW 24 39 29.97 1015 10 16.0934 N/A
9:15 am 09:15 Cloudy 50 10 41 5 71 71 N 12 19 30 1016 10 16.0934 N/A
9:35 am 09:35 Cloudy 50 10 41 5 71 71 NNW 14 22 30.01 1016 10 16.0934 N/A
9:55 am 09:55 Cloudy 52 11 41 5 67 67 N 14 22 30 1016 10 16.0934 N/A
10:15 am 10:15 Mostly Cloudy 52 11 41 5 67 67 N 14 22 30.01 1016 10 16.0934 N/A
10:35 am 10:35 Partly Cloudy 54 12 41 5 63 63 N 13 20 30.01 1016 10 16.0934 N/A
10:55 am 10:55 Partly Cloudy 54 12 43 6 67 67 NNW 14 22 30.01 1016 10 16.0934 N/A
11:15 am 11:15 Mostly Cloudy 54 12 43 6 67 67 N 15 24 30.01 1016 10 16.0934 N/A
11:35 am 11:35 Mostly Cloudy 54 12 43 6 67 67 N 8 13 30.02 1017 10 16.0934 N/A
11:55 am 11:55 Partly Cloudy 55 13 43 6 63 63 N 10 17 30.01 1016 10 16.0934 N/A
12:15 pm 12:15 Partly Cloudy 55 13 43 6 63 63 N 8 13 30 1016 10 16.0934 N/A
12:35 pm 12:35 Partly Cloudy 57 14 45 7 63 63 NNW 13 20 30.01 1016 10 16.0934 N/A
12:55 pm 12:55 Mostly Cloudy 57 14 45 7 63 63 NNW 10 17 30.01 1016 10 16.0934 N/A
1:15 pm 13:15 Mostly Cloudy 59 15 43 6 55 55 NNW 14 22 30.01 1016 10 16.0934 N/A
1:35 pm 13:35 Partly Cloudy 59 15 45 7 59 59 NW 17 28 30.01 1016 10 16.0934 N/A
1:55 pm 13:55 Sunny 59 15 43 6 55 55 NNW 14 22 30.01 1016 10 16.0934 N/A
2:15 pm 14:15 Sunny 59 15 45 7 59 59 NW 9 15 30.01 1016 10 16.0934 N/A
2:35 pm 14:35 Partly Cloudy 61 16 45 7 55 55 NNW 12 19 30.02 1016 10 16.0934 N/A
2:55 pm 14:55 Partly Cloudy 61 16 43 6 52 52 NW 10 17 30 1016 10 16.0934 N/A
3:15 pm 15:15 Partly Cloudy 61 16 43 6 52 52 NNW 13 20 30.01 1016 10 16.0934 N/A
3:35 pm 15:35 Partly Cloudy 63 17 41 5 45 45 N 9 15 30 1016 10 16.0934 N/A
3:55 pm 15:55 Partly Cloudy 61 16 41 5 48 48 WNW 13 20 30 1016 10 16.0934 N/A
4:15 pm 16:15 Sunny 63 17 41 5 45 45 NNW 9 15 29.98 1015 10 16.0934 N/A
4:35 pm 16:35 Sunny 63 17 41 5 45 45 NW 10 17 29.98 1015 10 16.0934 N/A
4:55 pm 16:55 Sunny 63 17 41 5 45 45 NNW 13 20 29.98 1015 10 16.0934 N/A
5:15 pm 17:15 Sunny 63 17 41 5 45 45 NW 12 19 29.99 1015 10 16.0934 N/A
5:35 pm 17:35 Sunny 63 17 41 5 45 45 NW 13 20 30 1016 10 16.0934 N/A
5:55 pm 17:55 Sunny 63 17 39 4 42 42 NNW 14 22 30 1016 10 16.0934 N/A
6:15 pm 18:15 Sunny 63 17 39 4 42 42 NW 9 15 30.01 1016 10 16.0934 N/A
6:35 pm 18:35 Mostly Cloudy 63 17 37 3 39 39 NNE 8 13 30.01 1016 10 16.0934 N/A
6:55 pm 18:55 Partly Cloudy 63 17 37 3 39 39 N 7 11 30.01 1016 10 16.0934 N/A
7:15 pm 19:15 Sunny 63 17 37 3 39 39 NNW 8 13 30.02 1016 10 16.0934 N/A
7:35 pm 19:35 Sunny 63 17 37 3 39 39 N 7 11 30.03 1017 10 16.0934 N/A
7:55 pm 19:55 Sunny 61 16 36 2 39 39 N 9 15 30.04 1017 10 16.0934 N/A
8:15 pm 20:15 Clear 59 15 36 2 42 42 N 10 17 30.05 1018 10 16.0934 N/A
8:35 pm 20:35 Clear 59 15 36 2 42 42 N 7 11 30.05 1018 10 16.0934 N/A
8:55 pm 20:55 Clear 57 14 36 2 44 44 NNW 5 7 30.06 1018 10 16.0934 N/A
9:15 pm 21:15 Clear 55 13 36 2 47 47 NNW 3 6 30.07 1018 10 16.0934 N/A
9:35 pm 21:35 Clear 54 12 36 2 51 51 NNW 6 9 30.07 1018 10 16.0934 N/A
9:55 pm 21:55 Clear 52 11 37 3 58 58 NNW 8 13 30.08 1019 10 16.0934 N/A
10:15 pm 22:15 Clear 54 12 36 2 51 51 NNW 6 9 30.08 1019 10 16.0934 N/A
10:35 pm 22:35 Clear 50 10 37 3 62 62 NW 5 7 30.11 1020 10 16.0934 N/A
10:55 pm 22:55 Clear 50 10 39 4 67 67 WNW 3 6 30.11 1020 10 16.0934 N/A
11:15 pm 23:15 Clear 50 10 39 4 67 67 WNW 3 6 30.11 1020 10 16.0934 N/A
11:35 pm 23:35 Clear 50 10 39 4 67 67 N N/A 30.11 1020 10 16.0934 N/A
11:55 pm 23:55 Clear 50 10 39 4 67 67 NNW 5 7 30.11 1020 10 16.0934 N/A

Powered by AerisWeather